Observations for Trim Market St
| Time | AQI | Temp °C | Hum % | Pres Pa | CO μg/m³ | H₂S μg/m³ | NO μg/m³ | NO₂ μg/m³ | O₃ μg/m³ | SO₂ μg/m³ | PM1 μg/m³ | PM2.5 μg/m³ | PM10 μg/m³ |
|---|---|---|---|---|---|---|---|---|---|---|---|---|---|
| Monday 17 August 2026 | |||||||||||||
| 04:01 | 2 | 18.4 | 78 | 2,147,483,647 | 0.12 | 0 | 1.79 | 3.32 | 50.77 | 0 | 3.56 | 4.56 | 7.53 |
| 04:00 | 2 | 18.4 | 78 | 2,147,483,647 | 0.11 | 0 | 1.84 | 3.39 | 54.25 | 0 | 2.85 | 5.03 | 8.11 |
| 03:59 | 2 | 18.5 | 78 | 2,147,483,647 | 0.12 | 0 | 1.8 | 3.3 | 49.68 | 0 | 2.85 | 4.56 | 8.11 |
| 03:58 | 2 | 18.4 | 78 | 2,147,483,647 | 0.12 | 0 | 1.64 | 3.39 | 52.65 | 0 | 3.56 | 4.56 | 8.11 |
| 03:57 | 2 | 18.4 | 78 | 2,147,483,647 | 0.14 | 0 | 1.83 | 3.27 | 51.44 | 0 | 4.28 | 5.03 | 8.69 |
| 03:56 | 2 | 18.4 | 78 | 2,147,483,647 | 0.14 | 0 | 1.83 | 3.49 | 47.88 | 0 | 4.28 | 5.98 | 9.84 |
| 03:55 | 2 | 18.4 | 78 | 2,147,483,647 | 0.14 | 0 | 1.71 | 3.3 | 50.9 | 0 | 2.85 | 3.61 | 6.38 |
| 03:50 | 2 | 18.4 | 78 | 2,147,483,647 | 0.1 | 0 | 1.78 | 3.09 | 48.99 | 0 | 2.14 | 3.61 | 6.38 |
| 03:49 | 2 | 18.4 | 78 | 2,147,483,647 | 0.11 | 0 | 1.78 | 3.52 | 57.04 | 0 | 2.85 | 4.09 | 9.84 |
| 03:47 | 2 | 18.5 | 78 | 2,147,483,647 | 0.13 | 0 | 1.8 | 3.15 | 52.35 | 0 | 2.14 | 3.14 | 6.95 |
| 03:44 | 2 | 18.4 | 78 | 2,147,483,647 | 0.11 | 0 | 1.71 | 3.31 | 52.4 | 0 | 2.85 | 4.09 | 6.95 |
| 03:34 | 2 | 18.5 | 78 | 2,147,483,647 | 0.04 | 0 | 1.74 | 3.35 | 47.65 | 0 | 0 | 0.77 | 2.91 |
| 03:33 | 2 | 18.5 | 78 | 2,147,483,647 | 0.04 | 0 | 1.74 | 3.17 | 53.81 | 0 | 0 | 0.77 | 2.91 |
| 03:32 | 2 | 18.5 | 78 | 2,147,483,647 | 0.04 | 0 | 1.7 | 2.84 | 51.13 | 0 | 0 | 1.24 | 3.49 |
| 03:31 | 2 | 18.5 | 78 | 2,147,483,647 | 0.04 | 0 | 1.73 | 3.31 | 50.15 | 0 | 0 | 0.77 | 2.91 |
| 03:30 | 2 | 18.5 | 78 | 2,147,483,647 | 0.02 | 0 | 1.76 | 2.88 | 52.38 | 0 | 0 | 1.24 | 3.49 |
| 03:29 | 2 | 18.5 | 78 | 2,147,483,647 | 0.03 | 0 | 1.66 | 3.13 | 56.81 | 0 | 0 | 1.71 | 4.07 |
| 03:28 | 2 | 18.5 | 78 | 2,147,483,647 | 0.05 | 0 | 1.74 | 3.37 | 49.79 | 0 | 0 | 1.24 | 3.49 |
| 03:27 | 2 | 18.5 | 78 | 2,147,483,647 | 0.03 | 0 | 1.77 | 3.37 | 50.52 | 0 | 0 | 0.77 | 2.91 |
| 03:26 | 2 | 18.5 | 78 | 2,147,483,647 | 0.03 | 0 | 1.83 | 3.29 | 54.16 | 0 | 0 | 0.77 | 2.91 |